SL-12 R/B(2), 15334

Orbit data source: Space-Track

SL-12 R/B(2), 15334 is space debris in LEO originally from a launch on Fri, 28 Sep 1984 UTC launched from the Tyuratam Missile And Space Complex (TTMTR). Debris objects in space refer to the collection of defunct objects orbiting the Earth. Examples of debris include non-operational satellites, rocket bodies, and fragments generated from explosions, collisions, or faulty payload assembly.

Loading next visibility...
Identifier
15334, 1984-106B
Orbit
LEO
Last TLE update
8 hours ago
Origin
Manufacturer
NPO Energiya
Mission
Spacecraft
Bus & Motor
BLOK DM, Unknown motor
Mass
2,660 kg wet, 2,440 kg dry
Launch date (UTC)
1984-09-28 (41 years ago)
Launch vehicle
Unknown
Launch site
Tyuratam Missile And Space Complex (TTMTR)
Object type
Payload
Rocket body
Debris
Shape & HBR
Cyl, 6.27 m
Radar Cross Section
23.597 m², Large (>1 m²)

Expand to show TLE details & history

TLE from 8 hours ago
0 SL-12 R/B(2)
1 15334U 84106B   25186.58536546 -.00000216  00000-0 -86145-4 0  9998
2 15334  71.0029 348.0161 0003695 191.0649 169.0393 14.15563446984857
Epoch: 2025-07-05T14:02Z
TLE epoch observation values (Epoch: 2025-07-05T14:02:55.575Z)
Latitude
-0.00006°
Longitude
-146.53678°
Altitude
845.416 km
Speed
7.429 km/s
True Right ascension
23h 12m 03s
True Declination
0° 00' 00"
Sunlit
Object was in daylight at epoch
Visualization orbit readout
Latitude
-16.62967°
Longitude
-153.14245°
Altitude
848.776 km
Speed
7.426 km/s
Apparent Right ascension
22h 36m 14s
Apparent Declination
-27° 25' 11"
Sunlit
Object is in full shadow
Visualization observer readout
Local Sidereal Time
10:22:56
Azimuth
346.563° N
Elevation
-77.204°
Doppler factor
1
Orbital elements
Apogee altitude
840.987 km
Perigee altitude
835.654 km
Semi-major axis
7,216.457 km
Eccentricity
0.00037
Inclination
71.0029°
RAAN
348.0161°
Arg. of periapsis
191.0649°
True anomaly
Unknown
Mean anomaly
169.0393°
Eccentric anomaly
Unknown
Mean motion
3.54044 °/min
Orbital period
101.68 mins
BSTAR
-0.000086145
Loading maneuver chart data...
Loading SW <> Apogee altitude chart data...
Loading historical data...
Loading historical data...
Loading historical data...
Loading historical data...
Loading historical data...
Loading historical data...
Loading historical data...

SL-12 R/B(2) Visibility forecast

Observer location: undefined°, undefined°

Span
Click to sort rows by Start time (UTC) header in descending order
Start Az.
Max El. time (UTC)
Max El. Az.
Max El.
End time (UTC)
End Az.
8 mins2025-07-05 23:07:45.205Z306.355° NW2025-07-05 23:11:45.205Z254.465° W22.694°2025-07-05 23:15:45.205Z206.745° SW
9 mins2025-07-06 12:13:45.205Z206.029° SW2025-07-06 12:17:45.205Z259.861° W44.615°2025-07-06 12:22:45.205Z20.866° NNE
8 mins2025-07-06 21:08:45.205Z359.508° N2025-07-06 21:12:45.205Z72.304° E33.094°2025-07-06 21:16:45.205Z126.95° SE
|